Weather reports worldwide

Advertisment
Fair Isle, United Kingdom (3008): temperature & dewpoint: 11.08.2018 13:00:00 - 17.08.2018 13:00:00 (BST)Fair Isle, United Kingdom (3008): temperature -20cm & temperature -100cm: 11.08.2018 13:00:00 - 17.08.2018 13:00:00 (BST)Fair Isle, United Kingdom (3008): wind speed & gusts: 11.08.2018 13:00:00 - 17.08.2018 13:00:00 (BST)Fair Isle, United Kingdom (3008): wind direction: 11.08.2018 13:00:00 - 17.08.2018 13:00:00 (BST)Fair Isle, United Kingdom (3008): reduced air pressure: 11.08.2018 13:00:00 - 17.08.2018 13:00:00 (BST)Fair Isle, United Kingdom (3008): visibility: 11.08.2018 13:00:00 - 17.08.2018 13:00:00 (BST)Fair Isle, United Kingdom (3008): precipitation: 11.08.2018 13:00:00 - 17.08.2018 13:00:00 (BST)
Date & Time tt [°C] td [°C] tt -20cm [°C] tt -100cm [°C] ff [km/h] ff [kn] fx [km/h] fx [kn] dd ppp [hPa] vv [km] rr [mm]
17.08.2018 13:00:00 14,2 11,9 - - 24 13 - - SSW 1006,1 23 0,0
17.08.2018 12:00:00 14,4 12,0 - - 29 16 - - SSW 1005,9 19 0,0
17.08.2018 11:00:00 13,7 11,8 - - 28 15 - - SW 1005,9 16 0,0
17.08.2018 10:00:00 13,2 11,4 14,5 13,2 28 15 - - SW 1005,7 15 0,0
17.08.2018 09:00:00 12,2 10,5 - - 29 16 48 26 SW 1005,4 20 0,0
17.08.2018 08:00:00 12,2 10,0 - - 37 20 48 26 SW 1004,9 24 0,0
17.08.2018 07:00:00 11,9 10,1 - - 37 20 48 26 SW - 20 0,0
17.08.2018 06:00:00 11,6 10,3 - - 29 16 54 29 SW - - 0,0
17.08.2018 05:00:00 11,8 10,0 - - 37 20 50 27 SW - - 0,0
17.08.2018 04:00:00 11,6 10,6 - - 31 17 48 26 SW - - 0,0
17.08.2018 03:00:00 11,8 10,3 - - 39 21 50 27 WSW 1003,5 20 0,0
17.08.2018 02:00:00 11,8 11,1 - - 24 13 - - SW 1003,4 12 0,0
17.08.2018 01:00:00 11,7 10,8 - - 26 14 - - SW 1003,3 13 0,0
17.08.2018 00:00:00 12,0 11,3 - - 31 17 - - SW 1003,1 15 1,2
16.08.2018 23:00:00 12,4 11,3 - - 28 15 - - SW 1002,8 11 0,0
16.08.2018 22:00:00 12,0 10,9 - - 18 10 - - SSW 1002,6 15 0,0
16.08.2018 21:00:00 12,2 10,5 - - 24 13 - - WSW 1002,2 15 0,0
16.08.2018 20:00:00 12,6 10,4 - - 28 15 - - SW 1001,9 17 0,0
16.08.2018 19:00:00 13,2 10,9 - - 24 13 - - SW 1001,5 30 0,0
16.08.2018 18:00:00 13,6 10,8 - - 28 15 - - WSW 1001,3 18 0,0
16.08.2018 17:00:00 13,3 11,7 - - 21 11 - - SW 1001,3 15 0,4
16.08.2018 16:00:00 13,2 11,4 - - 21 11 - - S 1000,9 20 0,0
16.08.2018 15:00:00 13,9 12,0 - - 22 12 - - S 1000,7 16 0,0
16.08.2018 14:00:00 14,7 12,5 - - 24 13 - - S 1000,8 11 0,0
16.08.2018 13:00:00 14,3 12,0 - - 24 13 - - SSW 1000,8 13 0,0
16.08.2018 12:00:00 14,9 13,2 - - 22 12 - - SSW 1000,7 11 0,0
16.08.2018 11:00:00 13,9 12,4 - - 22 12 - - S 1000,8 15 0,0
16.08.2018 10:00:00 14,0 11,9 14,7 13,2 21 11 - - S 1000,7 20 0,0
16.08.2018 09:00:00 13,4 10,7 - - 22 12 - - S 1000,9 14 0,0
16.08.2018 08:00:00 12,6 10,4 - - 18 10 - - S 1000,8 20 0,0
16.08.2018 07:00:00 11,6 10,5 - - 16 9 - - S 1000,8 19 0,0
16.08.2018 06:00:00 10,4 9,1 - - 11 6 - - S 1000,8 18 0,0
16.08.2018 05:00:00 11,3 10,4 - - 16 9 - - S 1000,8 16 0,0
16.08.2018 04:00:00 11,1 10,4 - - 16 9 - - S 1001,1 12 0,0
16.08.2018 03:00:00 11,2 10,5 - - 15 8 - - SSW 1001,1 11 0,0
16.08.2018 02:00:00 11,7 10,6 - - 21 11 - - SW 1001,1 12 0,0
16.08.2018 01:00:00 12,1 10,8 - - 31 17 50 27 WSW 1001,2 18 0,0
16.08.2018 00:00:00 12,6 11,3 - - 29 16 46 25 SW 1000,9 29 0,0
15.08.2018 23:00:00 13,3 11,2 - - 29 16 - - SSW 1000,7 18 0,0
15.08.2018 22:00:00 13,2 11,1 - - 28 15 - - SSW 1000,6 22 0,0
15.08.2018 21:00:00 12,2 11,5 - - 16 9 - - S 1000,9 28 0,0
15.08.2018 20:00:00 12,5 12,5 - - 18 10 - - SSW 1001,1 35 0,2
15.08.2018 19:00:00 12,0 12,0 - - 11 6 - - SE 1001,4 0,3 0,6
15.08.2018 18:00:00 12,2 12,1 - - 8 4 - - S 1002,1 8 2,4
15.08.2018 17:00:00 12,5 12,2 - - 11 6 - - W 1002,4 5 3,6
15.08.2018 16:00:00 12,8 12,6 - - 15 8 - - WSW 1002,9 4,8 2,4
15.08.2018 15:00:00 13,8 13,0 - - 13 7 - - S 1003,3 15 0,0
15.08.2018 14:00:00 15,2 14,5 - - 18 10 - - S 1003,4 19 0,0
15.08.2018 13:00:00 14,5 13,7 - - 22 12 - - S 1003,7 21 0,0
15.08.2018 12:00:00 14,3 13,4 - - 24 13 - - S 1003,8 23 0,0
15.08.2018 11:00:00 13,8 12,9 - - 21 11 - - S 1004,4 35 0,0
15.08.2018 10:00:00 14,4 13,0 14,7 13,2 22 12 - - S 1004,4 29 0,0
15.08.2018 09:00:00 13,3 12,5 - - 22 12 - - S 1004,6 29 0,0
15.08.2018 08:00:00 12,8 11,7 - - 24 13 - - S 1004,6 25 0,0
15.08.2018 07:00:00 12,2 12,0 - - 18 10 - - S - 20 0,0
15.08.2018 06:00:00 12,1 10,9 - - 22 12 - - SW - - 0,0
15.08.2018 05:00:00 12,2 11,8 - - 21 11 - - SW - - 0,0
15.08.2018 04:00:00 12,3 12,3 - - 21 11 - - WSW - - 0,0
15.08.2018 03:00:00 12,6 12,6 - - 26 14 - - WSW - - 0,0
15.08.2018 02:00:00 12,8 12,8 - - 29 16 - - WSW 1005,2 12 0,0
15.08.2018 01:00:00 12,7 12,7 - - 21 11 - - WSW 1005,6 2,5 0,0
15.08.2018 00:00:00 13,2 13,2 - - 26 14 - - WSW 1005,7 10 0,0
14.08.2018 23:00:00 13,0 13,0 - - 18 10 - - SSW 1005,6 14 0,0
14.08.2018 22:00:00 12,9 12,9 - - 24 13 - - S 1005,8 0,6 0,0
14.08.2018 21:00:00 12,9 12,9 - - 21 11 - - S 1006,1 0,4 0,2
14.08.2018 20:00:00 12,9 12,9 - - 15 8 - - S 1006,1 7 0,0
14.08.2018 19:00:00 13,1 13,1 - - 15 8 - - S 1006,3 1,2 0,2
14.08.2018 18:00:00 13,0 13,0 - - 16 9 - - S 1006,6 5 0,2
14.08.2018 17:00:00 13,4 13,1 - - 11 6 - - SSE 1006,5 6 0,2
14.08.2018 16:00:00 14,3 14,1 - - 11 6 - - SW 1006,9 30 0,0
14.08.2018 15:00:00 13,7 13,7 - - 15 8 - - SW 1007,2 12 0,0
14.08.2018 14:00:00 13,1 13,1 - - 15 8 - - SSW 1007,3 0,2 0,4
14.08.2018 13:00:00 13,2 13,2 - - 13 7 - - SSW 1007,3 0,1 0,0
14.08.2018 12:00:00 13,2 13,2 - - 13 7 - - SSW 1007,4 0,1 0,4
14.08.2018 11:00:00 12,7 12,7 - - 5 3 - - SE 1007,4 0,1 0,2
14.08.2018 10:00:00 12,7 12,7 14,7 13,2 9 5 - - S 1007,7 4,0 0,2
14.08.2018 09:00:00 12,6 12,6 - - 9 5 - - SSE 1007,8 10 0,0
14.08.2018 08:00:00 12,7 12,3 - - 9 5 - - S 1007,9 6 0,2
14.08.2018 07:00:00 12,7 12,0 - - 8 4 - - SE 1008,2 35 0,0
14.08.2018 06:00:00 12,7 11,4 - - 13 7 - - SSE 1008,2 50 0,0
14.08.2018 05:00:00 12,5 11,2 - - 11 6 - - SSE 1008,4 45 0,0
14.08.2018 04:00:00 12,7 10,9 - - 8 4 - - SE 1008,8 50 0,0
14.08.2018 03:00:00 12,7 10,8 - - 8 4 - - SSE 1009,1 45 0,0
14.08.2018 02:00:00 12,8 10,8 - - 5 3 - - SE 1009,4 40 0,0
14.08.2018 01:00:00 12,6 10,2 - - 5 3 - - SE 1009,5 45 0,0
14.08.2018 00:00:00 12,4 9,7 - - 4 2 - - ESE 1009,5 50 0,0
13.08.2018 23:00:00 13,1 9,6 - - 5 3 - - SE 1009,4 50 0,0
13.08.2018 22:00:00 12,3 9,7 - - 2 1 - - ENE 1009,8 40 0,0
13.08.2018 21:00:00 13,2 9,4 - - 8 4 - - ESE 1009,7 50 0,0
13.08.2018 20:00:00 13,0 9,2 - - 2 1 - - E 1009,8 45 0,0
13.08.2018 19:00:00 14,1 9,7 - - 5 3 - - SE 1009,7 50 0,0
13.08.2018 18:00:00 14,3 9,3 - - 9 5 - - ESE 1009,8 40 0,0
13.08.2018 17:00:00 14,9 9,9 - - 8 4 - - ESE 1010,2 45 0,0
13.08.2018 16:00:00 15,2 9,8 - - 9 5 - - ESE 1010,3 50 0,0
13.08.2018 15:00:00 15,3 9,8 - - 13 7 - - ESE 1010,6 20 0,0
13.08.2018 14:00:00 14,9 9,5 - - 13 7 - - ESE 1010,7 40 0,0
13.08.2018 13:00:00 15,0 9,7 - - 13 7 - - ESE 1010,6 50 0,0
13.08.2018 12:00:00 15,1 10,0 - - 11 6 - - ESE 1010,9 35 0,0
13.08.2018 11:00:00 14,9 10,0 - - 15 8 - - ESE 1010,7 40 0,0
13.08.2018 10:00:00 14,6 9,6 14,7 13,2 15 8 - - ESE 1010,7 45 0,0
13.08.2018 09:00:00 14,4 10,0 - - 13 7 - - E 1010,7 40 0,0
13.08.2018 08:00:00 13,9 10,1 - - 11 6 - - ESE 1010,8 45 0,0
13.08.2018 07:00:00 12,9 9,6 - - 11 6 - - E 1010,6 50 0,0
13.08.2018 06:00:00 12,5 9,8 - - 13 7 - - E 1010,5 50 0,0
13.08.2018 05:00:00 12,1 9,4 - - 9 5 - - E 1010,8 50 0,0
13.08.2018 04:00:00 12,4 9,1 - - 11 6 - - E 1011,0 50 0,0
13.08.2018 03:00:00 12,2 9,3 - - 13 7 - - E 1011,2 50 0,0
13.08.2018 02:00:00 11,2 9,7 - - 9 5 - - ENE 1011,5 45 0,0
13.08.2018 01:00:00 11,9 9,2 - - 11 6 - - E 1011,9 45 0,0
13.08.2018 00:00:00 12,1 9,2 - - 15 8 - - E 1011,9 50 0,0
12.08.2018 23:00:00 11,8 10,1 - - 11 6 - - E 1012,0 35 0,0
12.08.2018 22:00:00 10,2 7,7 - - 8 4 - - ENE 1012,4 50 0,0
12.08.2018 21:00:00 12,0 8,5 - - 9 5 - - E 1012,5 50 0,0
12.08.2018 20:00:00 12,8 8,4 - - 11 6 - - E 1012,5 40 0,0
12.08.2018 19:00:00 13,2 8,4 - - 9 5 - - E 1012,6 50 0,0
12.08.2018 18:00:00 13,6 8,8 - - 9 5 - - E 1012,8 50 0,0
12.08.2018 17:00:00 13,4 8,8 - - 11 6 - - E 1013,0 45 0,0
12.08.2018 16:00:00 13,6 8,7 - - 13 7 - - E 1013,1 50 0,0
12.08.2018 15:00:00 13,7 9,0 - - 15 8 - - E 1013,3 40 0,0
12.08.2018 14:00:00 14,0 9,6 - - 18 10 - - E 1013,5 40 0,0
12.08.2018 13:00:00 13,8 8,9 - - 16 9 - - ENE 1013,5 50 0,0
12.08.2018 12:00:00 13,4 9,1 - - 18 10 - - ENE 1013,5 29 0,0
12.08.2018 11:00:00 13,6 9,7 - - 16 9 - - E 1013,6 35 0,0
12.08.2018 10:00:00 13,8 9,5 14,7 13,2 16 9 - - ENE 1013,7 40 0,0
12.08.2018 09:00:00 13,1 9,2 - - 21 11 - - NE 1013,7 35 0,0
12.08.2018 08:00:00 12,7 9,4 - - 16 9 - - ENE 1013,8 40 0,0
12.08.2018 07:00:00 11,9 10,2 - - 18 10 - - NE 1013,7 40 0,0
12.08.2018 06:00:00 9,6 9,1 - - 13 7 - - NE 1013,9 40 0,0
12.08.2018 05:00:00 8,8 8,2 - - 8 4 - - NNE 1014,1 35 0,0
12.08.2018 04:00:00 8,7 7,9 - - 9 5 - - NE 1014,4 35 0,0
12.08.2018 03:00:00 8,0 7,2 - - 9 5 - - NNE 1014,8 30 0,0
12.08.2018 02:00:00 7,9 7,2 - - 5 3 - - NNE 1015,2 45 0,0
12.08.2018 01:00:00 8,4 7,7 - - 5 3 - - N 1015,6 45 0,0
12.08.2018 00:00:00 8,7 7,8 - - 5 3 - - N 1015,9 40 0,0
11.08.2018 23:00:00 9,4 8,3 - - 8 4 - - N 1016,1 35 0,0
11.08.2018 22:00:00 9,7 8,5 - - 8 4 - - NNW 1016,3 45 0,0
11.08.2018 21:00:00 10,4 8,2 - - 8 4 - - NNW 1016,6 50 0,0
11.08.2018 20:00:00 12,7 8,9 - - 8 4 - - WNW 1016,4 50 0,0
11.08.2018 19:00:00 13,3 9,2 - - 9 5 - - WNW 1016,6 40 0,0
11.08.2018 18:00:00 13,3 8,5 - - 11 6 - - WNW 1016,7 35 0,0
11.08.2018 17:00:00 13,5 9,4 - - 13 7 - - WNW 1016,7 45 0,0
11.08.2018 16:00:00 13,7 9,5 - - 13 7 - - NW 1016,6 50 0,0
11.08.2018 15:00:00 14,0 9,7 - - 11 6 - - WNW 1016,8 20 0,0
11.08.2018 14:00:00 14,1 10,3 - - 15 8 - - W 1016,8 30 0,0
11.08.2018 13:00:00 13,3 9,5 - - 15 8 - - W 1016,6 45 0,0

tt = temperature
td = dewpoint
tt -20cm = temperature -20cm
tt -100cm = temperature -100cm
ff = wind speed
fx = gusts
dd = wind direction
ppp = reduced air pressure
vv = visibility
rr = precipitation

Next stations